FW8733 Weather Reports


time (UTC)temp
C
wind
direction
speed
KPH
gust
KPH
rain 1hr
cm
rain 24hr
cm
rain mn
cm
humidity
%
barometer
mb
20260507044902 16 216 0.0 0.0 0.00 0.00 0.00 87 1018.5
20260507044359 16 220 0.0 0.0 0.00 0.00 0.00 88 1018.5
20260507043855 16 207 0.0 0.0 0.00 0.00 0.00 88 1018.5
20260507043351 16 235 0.0 0.0 0.00 0.00 0.00 88 1018.5
20260507042848 16 244 0.0 0.0 0.00 0.00 0.00 88 1018.7
20260507042344 16 244 0.0 0.0 0.00 0.00 0.00 88 1018.5
20260507041840 16 245 0.0 0.0 0.00 0.00 0.00 88 1018.6
20260507041337 16 245 0.0 0.0 0.00 0.00 0.00 88 1018.5
20260507040835 16 247 1.6 3.2 0.00 0.00 0.00 89 1018.2
20260507040330 16 215 1.6 1.6 0.00 0.00 0.00 88 1018.3
20260507035826 16 195 4.8 4.8 0.00 0.00 0.00 88 1018.6
20260507035322 16 245 0.0 0.0 0.00 0.00 0.00 88 1018.6
20260507034820 16 245 0.0 0.0 0.00 0.00 0.00 88 1018.6
20260507034316 16 245 0.0 0.0 0.00 0.00 0.00 88 1018.7
20260507033815 16 245 3.2 3.2 0.00 0.00 0.00 88 1018.7
20260507033312 16 245 0.0 0.0 0.00 0.00 0.00 87 1018.6
20260507032809 16 246 0.0 1.6 0.00 0.00 0.00 87 1018.7
20260507032306 16 218 0.0 0.0 0.00 0.00 0.00 87 1018.3
20260507031802 17 232 0.0 0.0 0.00 0.00 0.00 87 1018.3
20260507031259 17 199 0.0 0.0 0.00 0.00 0.00 87 1017.9
20260507030755 17 246 0.0 1.6 0.00 0.00 0.00 87 1018.3
20260507030253 17 246 0.0 0.0 0.00 0.00 0.00 86 1018.1
20260507025750 17 224 0.0 0.0 0.00 0.00 0.00 87 1018.3
20260507025247 17 244 0.0 1.6 0.00 0.00 0.00 87 1018.1
20260507024745 17 244 0.0 0.0 0.00 0.00 0.00 87 1018.0
20260507024242 17 244 0.0 1.6 0.00 0.00 0.00 87 1018.1
20260507023737 17 212 0.0 0.0 0.00 0.00 0.00 88 1018.1
20260507023235 17 213 0.0 0.0 0.00 0.00 0.00 88 1018.0
20260507022732 17 245 0.0 0.0 0.00 0.00 0.00 87 1017.8
20260507022227 17 258 0.0 1.6 0.00 0.00 0.00 87 1017.8
20260507021724 17 245 0.0 0.0 0.00 0.00 0.00 87 1017.8
20260507021219 17 222 0.0 0.0 0.00 0.00 0.00 87 1017.8
20260507020718 17 199 1.6 3.2 0.00 0.00 0.00 87 1017.6
20260507020214 17 245 0.0 0.0 0.00 0.00 0.00 88 1017.4
20260507015712 17 245 0.0 0.0 0.00 0.00 0.00 88 1017.4
20260507015209 17 246 0.0 0.0 0.00 0.00 0.00 88 1017.4
20260507014706 17 246 0.0 0.0 0.00 0.00 0.00 87 1017.2
20260507014202 17 246 0.0 0.0 0.00 0.00 0.00 87 1017.1
20260507013659 17 245 0.0 0.0 0.00 0.00 0.00 87 1017.1
20260507013156 17 245 0.0 0.0 0.00 0.00 0.00 87 1017.1
20260507012654 17 245 0.0 0.0 0.00 0.00 0.00 87 1016.8
20260507012149 17 245 0.0 0.0 0.00 0.00 0.00 87 1016.7
20260507011647 17 245 0.0 0.0 0.00 0.00 0.00 87 1016.2
20260507011143 17 249 0.0 1.6 0.00 0.00 0.00 87 1016.5
20260507010638 17 249 0.0 0.0 0.00 0.00 0.00 86 1016.4
20260507010134 17 246 0.0 0.0 0.00 0.00 0.00 86 1016.4
20260507005631 17 246 0.0 0.0 0.00 0.00 0.00 86 1016.6
20260507005127 17 200 0.0 0.0 0.00 0.00 0.00 86 1016.5
20260507004624 17 200 0.0 1.6 0.00 0.00 0.00 86 1016.6
20260507004122 17 229 1.6 1.6 0.00 0.00 0.00 86 1016.4
20260507003618 17 230 0.0 1.6 0.00 0.00 0.00 85 1016.2
20260507003113 17 229 0.0 0.0 0.00 0.00 0.00 85 1015.9
20260507002610 17 217 0.0 0.0 0.00 0.00 0.00 86 1016.1
20260507002105 17 217 0.0 0.0 0.00 0.00 0.00 85 1015.9
20260507001603 17 236 0.0 0.0 0.00 0.00 0.00 85 1015.9
20260507001100 17 217 0.0 1.6 0.00 0.00 0.00 85 1016.2
20260507000556 17 229 0.0 0.0 0.00 0.00 0.00 85 1016.0
20260507000052 17 242 0.0 1.6 0.00 0.00 0.00 86 1016.0
20260506235549 17 243 0.0 1.6 0.00 0.00 0.00 86 1016.2
20260506235044 17 243 0.0 1.6 0.00 0.00 0.00 86 1016.1
20260506234542 17 244 1.6 3.2 0.00 0.00 0.00 85 1015.8
20260506234039 17 209 0.0 0.0 0.00 0.00 0.00 85 1016.1
20260506233536 17 252 0.0 0.0 0.00 0.00 0.00 85 1016.3
20260506233033 17 214 0.0 0.0 0.00 0.00 0.00 85 1016.0
20260506232529 17 214 0.0 0.0 0.00 0.00 0.00 85 1015.6
20260506232024 17 214 1.6 1.6 0.00 0.00 0.00 84 1016.0
20260506231522 17 243 0.0 0.0 0.00 0.00 0.00 85 1015.8
20260506231020 17 244 0.0 0.0 0.00 0.00 0.00 85 1015.8
20260506230516 17 210 0.0 1.6 0.00 0.00 0.00 84 1015.9
20260506230014 17 235 0.0 0.0 0.00 0.00 0.00 85 1015.6
20260506225510 17 209 0.0 0.0 0.00 0.00 0.00 85 1015.6
20260506225007 17 209 1.6 3.2 0.00 0.00 0.00 84 1015.9
20260506224504 17 254 1.6 3.2 0.00 0.00 0.00 84 1015.8
20260506224000 17 223 0.0 1.6 0.00 0.00 0.00 85 1015.9
20260506223456 17 256 0.0 0.0 0.00 0.00 0.00 84 1015.9
20260506222953 17 214 3.2 3.2 0.00 0.00 0.00 85 1015.6
20260506222450 17 213 1.6 1.6 0.00 0.00 0.00 84 1015.8
20260506221946 17 211 1.6 1.6 0.00 0.00 0.00 84 1016.0
20260506221444 17 210 0.0 0.0 0.00 0.00 0.00 84 1015.6
20260506220942 17 239 1.6 1.6 0.00 0.00 0.00 83 1015.8
20260506220437 18 251 0.0 0.0 0.00 0.00 0.00 83 1015.6
20260506215933 18 235 0.0 1.6 0.00 0.00 0.00 83 1015.5
20260506215430 18 232 0.0 0.0 0.00 0.00 0.00 81 1015.8
20260506214926 18 256 0.0 1.6 0.00 0.00 0.00 81 1015.6
20260506214423 18 251 0.0 0.0 0.00 0.00 0.00 81 1015.6
20260506213921 18 205 3.2 3.2 0.00 0.00 0.00 82 1015.5
20260506213418 18 273 0.0 1.6 0.00 0.00 0.00 81 1015.5
20260506212915 18 207 0.0 0.0 0.00 0.00 0.00 82 1015.4
20260506212411 18 262 3.2 3.2 0.00 0.00 0.00 81 1015.5
20260506211906 18 190 1.6 1.6 0.00 0.00 0.00 81 1015.5
20260506211402 19 256 0.0 0.0 0.00 0.00 0.00 81 1015.6
20260506210859 19 260 3.2 3.2 0.00 0.00 0.00 80 1015.5
20260506210356 19 212 0.0 0.0 0.00 0.00 0.00 81 1015.6
20260506205854 19 210 0.0 0.0 0.00 0.00 0.00 81 1015.7
20260506205349 19 237 0.0 1.6 0.00 0.00 0.00 81 1015.6
20260506204846 20 253 4.8 4.8 0.00 0.00 0.00 79 1015.5
20260506204344 20 172 1.6 1.6 0.00 0.00 0.00 80 1015.8
20260506203841 19 263 1.6 1.6 0.00 0.00 0.00 81 1015.7
20260506203338 20 147 1.6 4.8 0.00 0.00 0.00 81 1015.7
20260506202835 19 198 1.6 1.6 0.00 0.00 0.00 83 1016.0
20260506202332 20 215 0.0 0.0 0.00 0.00 0.00 82 1016.1
20260506201828 20 264 3.2 4.8 0.00 0.00 0.00 81 1015.6
20260506201326 20 240 1.6 3.2 0.00 0.00 0.00 81 1015.6
20260506200822 21 190 0.0 1.6 0.00 0.00 0.00 81 1015.7
20260506200319 21 238 0.0 0.0 0.00 0.00 0.00 82 1015.5
20260506195815 21 236 0.0 0.0 0.00 0.00 0.00 82 1015.5
20260506195312 21 251 1.6 3.2 0.00 0.00 0.00 82 1015.3
20260506194809 20 250 0.0 0.0 0.00 0.00 0.00 83 1015.3
20260506194305 21 286 3.2 3.2 0.00 0.00 0.00 82 1015.4
20260506193803 21 234 0.0 1.6 0.00 0.00 0.00 83 1015.4
20260506193300 20 214 1.6 3.2 0.00 0.00 0.00 84 1015.1
20260506192756 20 206 1.6 1.6 0.00 0.00 0.00 85 1015.3
20260506192253 20 227 0.0 0.0 0.00 0.00 0.00 85 1015.4
20260506191750 20 243 1.6 3.2 0.00 0.00 0.00 85 1015.5
20260506191246 21 212 0.0 1.6 0.00 0.00 0.00 85 1015.1
20260506190743 21 217 0.0 1.6 0.00 0.00 0.00 85 1015.2
20260506190240 21 186 3.2 3.2 0.00 0.00 0.00 85 1015.3
20260506185737 22 59 0.0 0.0 0.00 0.00 0.00 84 1015.2
20260506185233 23 210 1.6 3.2 0.00 0.00 0.00 82 1015.2
20260506184731 25 187 3.2 3.2 0.00 0.00 0.00 78 1015.0
20260506184228 26 204 0.0 0.0 0.00 0.00 0.00 76 1015.0
20260506183725 26 224 1.6 3.2 0.00 0.00 0.00 75 1015.2
20260506183220 26 201 1.6 1.6 0.00 0.00 0.00 72 1014.9
20260506182718 26 201 0.0 0.0 0.00 0.00 0.00 73 1014.9
20260506182215 27 203 1.6 1.6 0.00 0.00 0.00 72 1014.9
20260506181713 26 173 0.0 0.0 0.00 0.00 0.00 75 1014.7
20260506181210 26 211 3.2 3.2 0.00 0.00 0.00 71 1014.9
20260506180707 26 211 0.0 0.0 0.00 0.00 0.00 71 1014.8
20260506180203 26 244 0.0 1.6 0.00 0.00 0.00 70 1014.9
20260506175659 25 181 0.0 1.6 0.00 0.00 0.00 73 1015.0
20260506175156 25 204 1.6 1.6 0.00 0.00 0.00 73 1014.9
20260506174654 25 171 1.6 3.2 0.00 0.00 0.00 73 1014.8
20260506174151 25 254 1.6 1.6 0.00 0.00 0.00 72 1014.6
20260506173649 25 217 0.0 1.6 0.00 0.00 0.00 76 1014.5
20260506173145 24 216 0.0 1.6 0.00 0.00 0.00 76 1014.4
20260506172642 23 189 1.6 3.2 0.00 0.00 0.00 78 1014.5
20260506172139 23 210 1.6 1.6 0.00 0.00 0.00 80 1014.8
20260506171636 23 222 0.0 0.0 0.00 0.00 0.00 79 1014.9
20260506171134 23 211 3.2 4.8 0.00 0.00 0.00 76 1015.0
20260506170626 22 208 1.6 3.2 0.00 0.00 0.00 81 1014.8
20260506170122 22 209 1.6 1.6 0.00 0.00 0.00 79 1014.9
20260506165621 21 259 0.0 1.6 0.00 0.00 0.00 82 1015.2
20260506165111 21 236 3.2 8.0 0.00 0.00 0.00 80 1015.2
20260506164609 21 215 3.2 4.8 0.00 0.00 0.00 79 1015.2
20260506164106 21 206 1.6 1.6 0.00 0.00 0.00 84 1015.0
20260506163601 20 197 8.0 9.7 0.00 0.00 0.00 85 1015.2
20260506163057 20 223 0.0 0.0 0.00 0.00 0.00 87 1015.4
20260506162554 18 215 0.0 0.0 0.00 0.00 0.00 89 1015.5
20260506162051 18 215 0.0 0.0 0.00 0.00 0.00 93 1015.8
20260506161549 17 215 0.0 0.0 0.00 0.00 0.00 92 1015.9
20260506161045 17 218 0.0 0.0 0.00 0.00 0.00 92 1016.8
20260506160543 17 254 0.0 1.6 0.00 0.00 0.00 91 1017.2
20260506160040 18 244 3.2 4.8 0.00 0.00 0.00 91 1017.2
20260506155539 18 235 0.0 1.6 0.00 0.00 0.00 91 1016.6
20260506153715 20 209 1.6 3.2 0.00 0.00 0.00 90 1015.2
20260506153213 20 222 3.2 3.2 0.00 0.00 0.00 91 1015.1
20260506152709 20 185 0.0 1.6 0.00 0.00 0.00 91 1015.2
20260506152207 21 212 1.6 3.2 0.00 0.00 0.00 90 1015.3
20260506151706 21 224 1.6 3.2 0.00 0.00 0.00 89 1014.6
20260506151202 22 292 6.4 11.3 0.00 0.00 0.00 87 1014.6
20260506150658 25 342 4.8 4.8 0.00 0.00 0.00 87 1014.9
20260506150155 25 215 0.0 0.0 0.00 0.00 0.00 89 1014.2
20260506145652 25 215 1.6 1.6 0.00 0.00 0.00 89 1014.2
20260506145149 25 215 0.0 0.0 0.00 0.00 0.00 90 1014.1
20260506144647 25 215 0.0 0.0 0.00 0.00 0.00 90 1013.7
20260506144143 25 214 0.0 0.0 0.00 0.00 0.00 91 1013.7
20260506143641 25 209 3.2 4.8 0.00 0.00 0.00 91 1013.3
20260506143139 25 207 4.8 4.8 0.00 0.00 0.00 91 1013.4
20260506142637 25 197 1.6 3.2 0.00 0.00 0.00 91 1013.2
20260506142135 25 225 1.6 3.2 0.00 0.00 0.00 90 1013.2
20260506141632 25 231 3.2 4.8 0.00 0.00 0.00 91 1012.8
20260506141130 25 218 4.8 8.0 0.00 0.00 0.00 90 1012.7
20260506140628 25 179 4.8 8.0 0.00 0.00 0.00 91 1013.0
20260506140125 25 181 4.8 4.8 0.00 0.00 0.00 93 1013.2
20260506135622 24 186 4.8 4.8 0.00 0.00 0.00 93 1013.0
20260506135118 24 217 3.2 4.8 0.00 0.00 0.00 93 1013.5
20260506134614 24 200 4.8 4.8 0.00 0.00 0.00 94 1013.2
20260506134110 24 199 1.6 1.6 0.00 0.00 0.00 94 1012.8
20260506133608 24 206 1.6 1.6 0.00 0.00 0.00 94 1012.9
20260506133104 24 206 3.2 3.2 0.00 0.00 0.00 94 1012.8
20260506132602 24 199 1.6 1.6 0.00 0.00 0.00 95 1012.7
20260506132059 24 199 1.6 3.2 0.00 0.00 0.00 94 1012.8
20260506131556 24 199 1.6 3.2 0.00 0.00 0.00 95 1012.9
20260506131052 24 184 4.8 4.8 0.00 0.00 0.00 95 1012.6
20260506130549 23 181 4.8 4.8 0.00 0.00 0.00 95 1012.3
20260506130047 23 183 3.2 3.2 0.00 0.00 0.00 95 1012.4
20260506125545 23 168 1.6 3.2 0.00 0.00 0.00 96 1012.8
20260506125042 23 169 3.2 4.8 0.00 0.00 0.00 96 1012.3
20260506124540 23 199 1.6 1.6 0.00 0.00 0.00 96 1012.1
20260506124038 23 201 1.6 1.6 0.00 0.00 0.00 96 1012.0
20260506123535 23 201 1.6 1.6 0.00 0.00 0.00 96 1012.3
20260506123033 23 194 4.8 4.8 0.00 0.00 0.00 97 1012.3
20260506122529 23 225 1.6 1.6 0.00 0.00 0.00 97 1012.1
20260506122028 23 227 0.0 1.6 0.00 0.00 0.00 97 1012.1
20260506121525 23 227 0.0 0.0 0.00 0.00 0.00 97 1012.3
20260506121021 23 228 0.0 0.0 0.00 0.00 0.00 97 1012.3
20260506120519 23 227 0.0 0.0 0.00 0.00 0.00 97 1012.3
20260506120017 23 227 0.0 0.0 0.00 0.00 0.00 96 1012.2
20260506115514 23 227 0.0 0.0 0.00 0.00 0.00 96 1012.2
20260506115013 23 227 0.0 0.0 0.00 0.00 0.00 96 1011.9
20260506114509 23 227 0.0 0.0 0.00 0.00 0.00 96 1011.7
20260506114008 23 227 0.0 1.6 0.00 0.00 0.00 96 1011.9
20260506113505 23 228 0.0 0.0 0.00 0.00 0.00 96 1011.8
20260506113002 23 228 0.0 0.0 0.00 0.00 0.00 96 1012.3
20260506112459 23 228 0.0 0.0 0.00 0.00 0.00 96 1012.4
20260506111956 23 228 0.0 0.0 0.00 0.00 0.00 95 1012.2
20260506111454 23 228 0.0 0.0 0.00 0.00 0.00 95 1012.3
20260506110951 23 228 0.0 0.0 0.00 0.00 0.00 95 1012.2
20260506110449 23 228 0.0 0.0 0.00 0.00 0.00 95 1011.9
20260506105945 23 228 0.0 0.0 0.00 0.00 0.00 95 1012.0
20260506105442 23 228 0.0 0.0 0.00 0.00 0.00 95 1012.0
20260506104939 23 228 0.0 0.0 0.00 0.00 0.00 95 1012.1
20260506104437 23 228 0.0 0.0 0.00 0.00 0.00 94 1012.2
20260506103935 23 228 0.0 0.0 0.00 0.00 0.00 94 1011.9
20260506103432 23 227 0.0 0.0 0.00 0.00 0.00 94 1011.8
20260506102929 23 227 0.0 0.0 0.00 0.00 0.00 94 1011.9
20260506102427 23 207 0.0 0.0 0.00 0.00 0.00 94 1011.6
20260506101924 23 207 0.0 0.0 0.00 0.00 0.00 94 1011.8
20260506101420 23 207 0.0 0.0 0.00 0.00 0.00 94 1011.9
20260506100918 24 220 0.0 0.0 0.00 0.00 0.00 93 1011.6
20260506100416 24 219 0.0 0.0 0.00 0.00 0.00 93 1011.8
20260506095914 24 242 0.0 0.0 0.00 0.00 0.00 93 1011.5
20260506095412 24 207 0.0 0.0 0.00 0.00 0.00 93 1011.5
20260506094908 24 207 4.8 4.8 0.00 0.00 0.00 93 1011.7
20260506094407 24 206 0.0 0.0 0.00 0.00 0.00 93 1011.5
20260506093904 24 205 1.6 1.6 0.00 0.00 0.00 93 1011.4
20260506093401 24 206 0.0 1.6 0.00 0.00 0.00 93 1011.2
20260506092859 24 228 0.0 1.6 0.00 0.00 0.00 93 1011.1
20260506092357 24 216 1.6 1.6 0.00 0.00 0.00 93 1011.1
20260506091853 24 217 0.0 0.0 0.00 0.00 0.00 94 1011.3
20260506091351 24 212 0.0 0.0 0.00 0.00 0.00 94 1011.1
20260506090848 24 210 1.6 1.6 0.00 0.00 0.00 94 1011.1
20260506090346 24 214 1.6 3.2 0.00 0.00 0.00 94 1011.0
20260506085842 24 185 1.6 3.2 0.00 0.00 0.00 93 1011.1
20260506085338 24 187 4.8 4.8 0.00 0.00 0.00 93 1010.7
20260506084835 24 204 1.6 1.6 0.00 0.00 0.00 93 1010.9
20260506084332 24 184 4.8 4.8 0.00 0.00 0.00 93 1011.0
20260506083828 24 187 0.0 0.0 0.00 0.00 0.00 93 1010.9
20260506083326 24 207 3.2 4.8 0.00 0.00 0.00 93 1011.0
20260506082823 24 198 3.2 4.8 0.00 0.00 0.00 93 1011.0
20260506082320 24 195 1.6 3.2 0.00 0.00 0.00 93 1011.0
20260506081816 24 220 1.6 1.6 0.00 0.00 0.00 93 1011.0
20260506081314 24 222 0.0 0.0 0.00 0.00 0.00 93 1011.0
20260506080812 24 187 1.6 3.2 0.00 0.00 0.00 92 1010.9
20260506080308 24 225 1.6 3.2 0.00 0.00 0.00 92 1011.0
20260506073252 24 170 6.4 8.0 0.00 0.00 0.00 91 1011.3
20260506072749 24 215 3.2 3.2 0.00 0.00 0.00 91 1011.1
20260506072246 24 139 9.7 14.5 0.00 0.00 0.00 91 1011.2
20260506071744 24 174 6.4 8.0 0.00 0.00 0.00 91 1011.3
20260506071242 24 143 1.6 3.2 0.00 0.00 0.00 91 1011.6
20260506070738 24 230 4.8 8.0 0.00 0.00 0.00 91 1011.4
20260506070235 24 230 4.8 8.0 0.00 0.00 0.00 91 1011.1
20260506062212 24 215 3.2 3.2 0.00 0.00 0.00 92 1011.4
20260506061708 24 187 4.8 4.8 0.00 0.00 0.00 92 1011.4
20260506061206 24 210 6.4 8.0 0.00 0.00 0.00 92 1011.4
20260506060704 24 203 3.2 4.8 0.00 0.00 0.00 92 1011.2
20260506060201 24 161 12.9 14.5 0.00 0.00 0.00 92 1011.3
20260506051133 24 190 4.8 9.7 0.00 0.00 0.00 92 1011.2
20260506050631 24 177 4.8 4.8 0.00 0.00 0.00 93 1011.4
20260506050128 24 187 3.2 4.8 0.00 0.00 0.00 92 1011.3